Weather History for KLWB - December, 2012

Change the Weather History Date:

Tuesday, December 11, 2012

  Actual Average Record
Temperature  
Mean Temperature 28 °F 32 °F  
Max Temperature 33 °F 42 °F 70 °F (2007)
Min Temperature 23 °F 23 °F 9 °F (1988)
Degree Days  
Heating Degree Days 37    
Month to date heating degree days  
Since 1 July heating degree days  
Cooling Degree Days 0    
Month to date cooling degree days  
Year to date cooling degree days  
Moisture  
Dew Point 24 °F    
Average Humidity 79    
Maximum Humidity 100    
Minimum Humidity 64    
Precipitation  
Precipitation 0.00 in 0.11 in 0.72 in (1949)
Month to date precipitation 1.17  
Year to date precipitation 37.99  
Snow  
Snow 0.00 in - - ()
Month to date snowfall  
Since 1 July snowfall  
Snow Depth -    
Sea Level Pressure  
Sea Level Pressure 30.01 in    
Wind  
Wind Speed 4 mph (West)    
Max Wind Speed 10 mph    
Max Gust Speed -    
Visibility 10 miles    
Events Rain    
T = Trace of Precipitation, MM = Missing Value Source: NWS Daily Summary

Daily Weather History Graph

Daily Weather History Graph

Search for Another Location

Airport or City:

Trip Planner

Search our weather history database for the weather conditions in past years. The results will help you decide how hot, cold, wet, or windy it might be!

Date:

Astronomy

Dec. 11, 2012 Rise Set
Actual Time 7:27 AM EST 5:02 PM EST
Civil Twilight 6:58 AM EST 5:32 PM EST
Nautical Twilight 6:25 AM EST 6:04 PM EST
Astronomical Twilight 5:53 AM EST 6:36 PM EST
Moon 5:21 AM EST (12/11) 3:39 PM EST (12/11)
Length of Visible Light 10h 33m
Length of Day
9h 35m
Waning Crescent, 4% of the Moon is Illuminated
Dec 11
Waning Crescent
Dec 13
New
Dec 20
First Quarter
Dec 28
Full
Jan 4
Last Quarter

Hourly Weather History & Observations

Time (EST) Temp. Windchill Dew Point Humidity Pressure Visibility Wind Dir Wind Speed Gust Speed Precip Events Conditions
12:15 AM 33.8 °F 29.6 °F 32.0 °F 93% 29.80 in 10.0 mi West 4.6 mph - N/A   Overcast
12:35 AM 32.0 °F 26.4 °F 32.0 °F 100% 29.81 in 10.0 mi WSW 5.8 mph - N/A Rain Light Rain
12:55 AM 32.0 °F 27.5 °F 32.0 °F 100% 29.81 in 10.0 mi West 4.6 mph - N/A   Overcast
1:15 AM 32.0 °F 28.7 °F 30.2 °F 93% 29.81 in 10.0 mi SW 3.5 mph - N/A   Overcast
1:35 AM 32.0 °F - 30.2 °F 93% 29.81 in 10.0 mi Calm Calm - N/A   Overcast
1:55 AM 32.0 °F 28.7 °F 30.2 °F 93% 29.82 in 10.0 mi SW 3.5 mph - N/A   Overcast
2:15 AM 32.0 °F 26.4 °F 30.2 °F 93% 29.82 in 10.0 mi West 5.8 mph - N/A   Overcast
2:35 AM 32.0 °F 24.2 °F 30.2 °F 93% 29.83 in 10.0 mi West 9.2 mph - N/A   Overcast
2:55 AM 32.0 °F 24.8 °F 30.2 °F 93% 29.84 in 10.0 mi West 8.1 mph - N/A   Overcast
3:35 AM 32.0 °F 25.6 °F 30.2 °F 93% 29.86 in 10.0 mi West 6.9 mph - N/A   Overcast
3:55 AM 32.0 °F 25.6 °F 30.2 °F 93% 29.86 in 10.0 mi West 6.9 mph - N/A   Overcast
4:15 AM 32.0 °F 27.5 °F 30.2 °F 93% 29.86 in 10.0 mi WNW 4.6 mph - N/A   Overcast
4:35 AM 32.0 °F 27.5 °F 30.2 °F 93% 29.86 in 10.0 mi West 4.6 mph - N/A   Overcast
4:55 AM 32.0 °F 27.5 °F 30.2 °F 93% 29.87 in 10.0 mi West 4.6 mph - N/A   Mostly Cloudy
5:15 AM 32.0 °F 28.7 °F 28.4 °F 87% 29.88 in 10.0 mi West 3.5 mph - N/A   Mostly Cloudy
5:35 AM 32.0 °F 27.5 °F 28.4 °F 87% 29.89 in 10.0 mi West 4.6 mph - N/A   Overcast
5:55 AM 32.0 °F 28.7 °F 28.4 °F 87% 29.91 in 10.0 mi West 3.5 mph - N/A   Overcast
6:15 AM 32.0 °F - 28.4 °F 87% 29.91 in 10.0 mi Calm Calm - N/A   Overcast
6:35 AM 32.0 °F - 28.4 °F 87% 29.91 in 10.0 mi Calm Calm - N/A   Overcast
6:55 AM 32.0 °F 27.5 °F 28.4 °F 87% 29.92 in 10.0 mi WNW 4.6 mph - N/A   Overcast
7:15 AM 32.0 °F - 26.6 °F 80% 29.93 in 10.0 mi Calm Calm - N/A   Overcast
7:35 AM 32.0 °F - 26.6 °F 80% 29.94 in 10.0 mi Calm Calm - N/A   Mostly Cloudy
7:55 AM 32.0 °F 26.4 °F 26.6 °F 80% 29.96 in 10.0 mi WSW 5.8 mph - N/A   Overcast
8:15 AM 32.0 °F 27.5 °F 26.6 °F 80% 29.96 in 10.0 mi WNW 4.6 mph - N/A   Overcast
8:35 AM 32.0 °F 27.5 °F 28.4 °F 87% 29.96 in 10.0 mi WNW 4.6 mph - N/A   Overcast
9:15 AM 32.0 °F 26.4 °F 28.4 °F 87% 29.98 in 10.0 mi NW 5.8 mph - N/A   Overcast
9:35 AM 32.0 °F 27.5 °F 26.6 °F 80% 29.99 in 10.0 mi WNW 4.6 mph - N/A   Overcast
9:55 AM 32.0 °F 25.6 °F 26.6 °F 80% 30.00 in 10.0 mi WNW 6.9 mph - N/A   Overcast
10:15 AM 32.0 °F 24.8 °F 26.6 °F 80% 30.02 in 10.0 mi West 8.1 mph - N/A   Overcast
10:35 AM 32.0 °F 26.4 °F 26.6 °F 80% 30.02 in 10.0 mi WNW 5.8 mph - N/A   Overcast
10:55 AM 32.0 °F 25.6 °F 24.8 °F 75% 30.02 in 10.0 mi West 6.9 mph - N/A   Overcast
11:15 AM 32.0 °F 27.5 °F 23.0 °F 69% 30.03 in 10.0 mi NW 4.6 mph - N/A   Overcast
11:35 AM 32.0 °F 26.4 °F 23.0 °F 69% 30.03 in 10.0 mi NW 5.8 mph - N/A   Overcast
11:55 AM 32.0 °F 24.8 °F 23.0 °F 69% 30.02 in 10.0 mi West 8.1 mph - N/A   Overcast
12:15 PM 32.0 °F 23.6 °F 23.0 °F 69% 30.03 in 10.0 mi NW 10.4 mph - N/A   Overcast
12:35 PM 32.0 °F 24.8 °F 23.0 °F 69% 30.03 in 10.0 mi WNW 8.1 mph - N/A   Overcast
12:55 PM 32.0 °F 24.2 °F 21.2 °F 64% 30.03 in 10.0 mi WNW 9.2 mph - N/A   Overcast
1:15 PM 32.0 °F 24.8 °F 21.2 °F 64% 30.02 in 10.0 mi WNW 8.1 mph - N/A   Overcast
1:35 PM 32.0 °F 25.6 °F 23.0 °F 69% 30.03 in 10.0 mi NNW 6.9 mph - N/A   Overcast
1:55 PM 32.0 °F 27.5 °F 21.2 °F 64% 30.03 in 10.0 mi WNW 4.6 mph - N/A   Overcast
2:15 PM 32.0 °F 27.5 °F 23.0 °F 69% 30.03 in 10.0 mi WNW 4.6 mph - N/A   Overcast
2:35 PM 30.2 °F 23.4 °F 23.0 °F 75% 30.04 in 10.0 mi West 6.9 mph - N/A   Overcast
2:55 PM 30.2 °F 23.4 °F 21.2 °F 69% 30.04 in 10.0 mi WNW 6.9 mph - N/A   Overcast
3:15 PM 30.2 °F 21.9 °F 21.2 °F 69% 30.05 in 10.0 mi West 9.2 mph - N/A   Overcast
3:35 PM 30.2 °F 21.9 °F 21.2 °F 69% 30.07 in 10.0 mi West 9.2 mph - N/A   Overcast
3:55 PM 30.2 °F 22.6 °F 21.2 °F 69% 30.08 in 10.0 mi West 8.1 mph - N/A   Overcast
4:15 PM 28.4 °F 20.4 °F 19.4 °F 69% 30.08 in 10.0 mi West 8.1 mph - N/A   Overcast
4:35 PM 28.4 °F 21.2 °F 19.4 °F 69% 30.09 in 10.0 mi West 6.9 mph - N/A   Overcast
4:55 PM 28.4 °F 22.2 °F 19.4 °F 69% 30.10 in 10.0 mi West 5.8 mph - N/A   Overcast
5:15 PM 28.4 °F 23.3 °F 19.4 °F 69% 30.10 in 10.0 mi West 4.6 mph - N/A   Overcast
5:35 PM 28.4 °F 24.6 °F 19.4 °F 69% 30.11 in 10.0 mi WNW 3.5 mph - N/A   Overcast
5:55 PM 28.4 °F 24.6 °F 19.4 °F 69% 30.11 in 10.0 mi WNW 3.5 mph - N/A   Mostly Cloudy
6:15 PM 28.4 °F - 19.4 °F 69% 30.12 in 10.0 mi Calm Calm - N/A   Mostly Cloudy
6:35 PM 28.4 °F - 19.4 °F 69% 30.13 in 10.0 mi Calm Calm - N/A   Overcast
6:55 PM 28.4 °F - 19.4 °F 69% 30.13 in 10.0 mi Calm Calm - N/A   Mostly Cloudy
7:15 PM 28.4 °F - 19.4 °F 69% 30.14 in 10.0 mi Calm Calm - N/A   Mostly Cloudy
7:35 PM 28.4 °F - 19.4 °F 69% 30.13 in 10.0 mi Calm Calm - N/A   Scattered Clouds
8:15 PM 28.4 °F - 19.4 °F 69% 30.15 in 10.0 mi Calm Calm - N/A   Overcast
8:35 PM 26.6 °F - 19.4 °F 74% 30.15 in 10.0 mi Calm Calm - N/A   Overcast
8:55 PM 26.6 °F 22.6 °F 19.4 °F 74% 30.15 in 10.0 mi WNW 3.5 mph - N/A   Scattered Clouds
9:15 PM 26.6 °F - 19.4 °F 74% 30.15 in 10.0 mi Calm Calm - N/A   Clear
9:35 PM 26.6 °F - 19.4 °F 74% 30.15 in 10.0 mi Calm Calm - N/A   Clear
9:55 PM 26.6 °F - 19.4 °F 74% 30.17 in 10.0 mi Calm Calm - N/A   Clear
10:15 PM 24.8 °F - 19.4 °F 80% 30.17 in 10.0 mi Calm Calm - N/A   Clear
10:35 PM 23.0 °F - 19.4 °F 86% 30.17 in 10.0 mi Calm Calm - N/A   Clear
10:55 PM 23.0 °F - 19.4 °F 86% 30.17 in 10.0 mi Calm Calm - N/A   Clear
11:15 PM 23.0 °F - 19.4 °F 86% 30.17 in 10.0 mi Calm Calm - N/A   Clear
11:35 PM 23.0 °F - 19.4 °F 86% 30.17 in 10.0 mi Calm Calm - N/A   Clear
11:55 PM 23.0 °F - 19.4 °F 86% 30.18 in 10.0 mi Calm Calm - N/A   Clear